Regional Weather Roundup
Issued by NWS

Home | Current Version | Previous Version | Graphics & Text | Print | Product List | Glossary On
Versions: 1 2 3 4 5 6 7 8 9 10 11 12 13 14 15 16 17 18 19 20 21 22 23 24 25 26 27 28 29 30 31 32 33 34 35 36 37 38 39 40 41 42 43 44 45 46 47 48 49 50
000
ASUS43 KLMK 271802
RWRKY
KENTUCKY REGIONAL WEATHER ROUNDUP
NATIONAL WEATHER SERVICE LOUISVILLE KY
200 PM EDT MON APR 27 2015

NOTE "FAIR" INDICATES FEW OR NO CLOUDS BELOW 12,000 FEET
WITH NO SIGNIFICANT WEATHER AND/OR OBSTRUCTIONS TO VISIBILITY.

KYZ001>023-026-027-061>063-070>075-271900-
WESTERN AND SOUTH CENTRAL KENTUCKY

CITY           SKY/WX    TMP DP  RH WIND       PRES   REMARKS
PADUCAH        PTSUNNY   64  38  38 NE13      30.01F
HENDERSON      MOSUNNY   61  36  39 N10       30.03F
OWENSBORO      MOSUNNY   61  32  33 N12       30.03F
HOPKINSVILLE   MOSUNNY   62  41  46 N8G16     30.00F
BOWLING GREEN  SUNNY     64  37  36 N9G17     29.99F
GLASGOW        NOT AVBL
$$

KYZ024-025-028>034-038-045-046-053-271900-
NORTH CENTRAL KENTUCKY

CITY           SKY/WX    TMP DP  RH WIND       PRES   REMARKS
LOUISVILLE/SDF PTSUNNY   64  35  34 W5        29.99F
LOUISVILLE/LOU SUNNY     63  36  36 NW7G16    30.00F
FORT KNOX      MOSUNNY   62  37  39 NW10      29.98S
$$

KYZ035>037-039>044-047>052-055>060-089>105-271900-
NORTHEAST KENTUCKY

CITY           SKY/WX    TMP DP  RH WIND       PRES   REMARKS
LEXINGTON      PTSUNNY   58  36  43 N6        29.98F
COVINGTON      MOSUNNY   61  36  39 N13       29.97F
FRANKFORT      PTSUNNY   61  34  36 W9        29.97F
$$

KYZ054-064>069-076>088-106>120-271900-
SOUTHEAST KENTUCKY

CITY           SKY/WX    TMP DP  RH WIND       PRES   REMARKS
JACKSON        PTSUNNY   58  30  34 MISG      29.95F
LONDON         MOSUNNY   61  30  31 W10       29.95F
SOMERSET       NOT AVBL
MIDDLESBORO    NOT AVBL
MONTICELLO     PTCLDY    62  36  38 VRB7      29.99F
$$



USA.gov is the U.S. government's official web portal to all federal, state and local government web resources and services.